GFSGBSN_sfc_wetblb_246.txt.gz
Wetbulb
63.96 63.39 63.09 62.45 60.92 60.67 60.54 60.99 60.84 60.30 60.61 61.84 62.23 62.82 62.79 62.44 62.19 62.09 61.67 61.54 62.20 63.06 63.53 63.18 63.29 63.66 53.28 46.61 46.22 53.55 65.16 60.92 54.16 54.73 51.79 53.27 50.34 47.97 44.01 44.08 44.76 39.90 40.55 41.22 40.84 40.23 39.03
63.49 63.67 63.04 62.47 61.01 60.34 60.03 60.23 60.38 59.71 60.26 61.29 62.01 62.42 62.38 62.11 61.77 61.83 61.66 61.84 62.91 63.10 62.45 62.38 63.38 61.72 48.60 42.43 52.10 52.17 51.47 52.71 52.79 51.93 50.28 50.29 49.78 49.43 46.29 44.43 43.09 43.52 41.01 39.41 40.40 39.42 39.37
63.26 63.55 63.15 62.44 60.60 59.95 59.28 59.61 59.95 59.54 59.93 61.18 61.40 61.98 61.87 61.46 61.13 61.36 61.37 61.37 61.72 61.38 61.27 62.68 62.60 52.12 46.50 45.03 50.78 49.85 51.60 51.04 51.92 50.91 49.37 49.37 51.14 49.98 46.42 43.40 45.93 42.79 38.07 38.13 37.96 38.06 36.65
63.27 63.34 62.73 61.98 60.03 59.40 59.40 59.82 59.83 59.63 59.52 60.20 60.67 60.94 61.20 60.72 60.91 61.34 61.29 60.96 60.74 60.83 61.58 62.83 62.06 48.21 43.35 51.54 50.57 49.90 50.38 51.04 51.95 51.58 50.55 49.95 49.71 46.66 45.54 45.77 43.78 39.69 37.99 32.99 37.58 38.60 37.55
63.35 62.91 62.32 61.63 59.99 58.85 59.58 59.85 59.27 59.40 59.64 59.76 60.47 60.41 60.49 60.39 60.53 61.12 60.62 60.93 61.36 62.32 63.03 62.03 49.93 45.77 41.93 55.11 48.76 48.95 47.96 48.83 50.15 51.04 49.66 50.81 47.36 42.20 41.66 38.90 35.46 34.93 30.10 32.70 35.40 39.26 37.11
63.60 62.71 62.03 61.21 59.68 58.66 58.93 59.00 58.88 59.22 59.45 59.65 59.72 59.23 59.35 59.60 60.24 60.34 59.26 61.03 60.62 57.53 54.35 52.29 50.42 44.98 46.13 45.66 48.73 48.21 47.37 49.12 49.02 48.78 46.25 43.83 40.17 36.39 35.09 34.03 28.85 30.10 29.70 32.26 31.46 34.51 33.40
63.70 63.48 61.73 60.97 59.60 58.52 57.97 58.16 58.63 59.02 59.15 59.37 59.03 58.61 58.49 59.24 59.76 59.30 55.85 52.67 48.15 46.07 46.97 43.59 43.62 44.31 46.26 48.57 48.46 46.81 47.33 48.36 47.49 43.74 38.25 39.79 36.48 30.90 32.69 33.76 35.37 33.65 31.95 31.03 32.13 35.91 31.80
64.08 63.76 61.54 60.57 59.08 58.68 58.26 58.08 58.38 58.78 59.02 59.15 58.57 58.27 58.03 58.72 58.30 57.08 53.09 49.75 46.79 48.16 43.49 46.84 46.70 46.45 47.99 46.30 43.91 46.31 48.33 44.59 41.42 37.62 39.21 35.95 31.40 36.29 39.12 37.16 35.52 34.56 31.21 28.86 32.77 35.33 31.19
63.57 63.17 61.33 60.17 58.65 58.06 58.08 57.99 57.97 58.54 58.86 58.63 58.05 57.80 57.64 57.85 56.88 53.87 51.31 51.18 53.67 51.17 43.93 46.45 46.05 45.33 45.87 46.65 42.53 43.04 45.21 43.80 39.53 36.65 34.97 32.11 34.34 39.09 38.66 34.40 33.10 32.44 30.21 28.32 29.77 32.24 31.96
63.17 62.94 61.18 59.92 58.36 57.53 57.58 57.67 57.64 58.37 58.48 57.23 57.32 57.18 57.76 57.32 53.96 51.34 50.68 53.76 53.76 51.93 38.67 42.67 44.95 46.24 46.71 46.63 43.04 46.24 44.86 43.41 40.21 36.18 36.44 33.83 36.73 36.26 35.30 33.62 32.59 29.13 34.56 32.72 32.02 28.86 23.38
63.16 62.70 61.10 59.91 58.07 57.08 56.93 57.31 57.43 58.24 57.93 57.29 56.71 56.66 56.59 55.86 50.46 51.30 52.47 53.43 52.50 50.71 31.75 44.83 44.39 49.11 46.81 43.30 42.95 44.09 44.83 43.23 36.76 35.87 37.03 31.42 33.49 32.41 32.23 32.75 34.11 31.89 34.45 31.68 32.12 28.10 25.90
63.11 62.65 61.13 59.81 57.72 56.57 56.61 57.18 57.29 58.13 57.75 56.43 56.15 56.61 56.24 52.72 51.32 51.15 53.65 52.37 51.50 42.06 30.70 41.46 44.64 43.10 42.90 43.44 42.69 43.67 40.17 41.49 40.40 37.55 36.07 33.57 37.11 34.59 32.88 35.41 35.06 34.87 31.29 31.57 30.42 27.46 20.67
62.72 62.29 60.78 59.92 57.64 56.22 56.46 57.16 57.16 58.23 57.91 56.85 56.35 55.92 54.83 53.80 49.92 51.92 52.17 49.43 40.76 33.77 42.28 39.22 40.35 42.10 40.11 39.61 39.77 39.15 35.39 32.80 29.68 30.43 28.61 32.17 32.07 34.91 35.55 31.10 33.50 30.60 24.77 20.75 22.38 19.77 19.40
62.38 61.61 60.48 59.84 57.72 56.14 56.31 56.93 56.81 57.80 57.36 55.81 54.81 54.53 53.64 52.90 50.72 51.00 49.30 44.60 35.18 39.56 38.38 43.20 41.67 40.69 38.25 38.86 37.69 35.87 33.64 30.12 32.68 30.56 27.13 26.79 28.26 31.10 34.78 30.05 26.52 27.36 23.48 18.46 18.55 16.59 17.20
61.92 61.15 60.27 59.69 58.00 56.19 55.85 56.54 56.51 57.11 56.52 54.62 53.39 48.81 49.23 50.06 51.07 50.51 46.84 38.29 36.38 38.49 42.04 41.47 40.29 36.57 36.22 39.51 37.04 34.33 29.62 29.75 31.34 31.08 27.04 25.82 26.91 33.36 34.50 33.08 29.66 26.98 21.85 25.00 20.40 18.16 14.66
61.66 60.85 60.30 59.67 58.23 55.98 55.41 56.21 56.53 56.61 55.83 53.65 46.30 47.41 47.67 50.47 49.79 48.05 42.26 38.53 37.45 41.64 41.77 41.73 35.90 37.05 33.92 35.65 34.78 33.05 30.05 32.27 32.86 34.57 31.63 27.74 25.29 31.47 33.64 33.34 31.43 27.72 28.11 20.46 18.67 8.77 11.24
61.86 61.01 60.42 59.56 58.39 55.84 55.00 55.56 56.36 56.01 55.09 52.98 47.27 46.20 49.67 49.07 49.52 44.12 37.93 35.99 39.23 41.97 41.88 38.84 36.94 36.79 35.82 34.89 33.73 30.27 30.25 33.07 34.80 34.86 33.35 27.97 27.40 26.84 29.94 25.74 22.98 23.93 21.97 21.24 19.73 16.65 7.86
62.12 61.31 60.49 59.54 58.50 56.23 54.97 55.09 55.67 54.90 53.25 49.90 45.06 42.27 49.39 49.65 42.28 35.73 35.99 38.91 43.50 39.97 40.81 40.11 39.26 38.55 36.36 35.71 33.52 30.90 31.07 31.63 35.55 35.07 29.73 29.80 26.10 20.50 22.66 27.87 29.33 25.57 22.09 19.79 12.40 12.06 12.78
62.36 61.53 60.61 59.62 58.72 56.73 54.85 54.55 54.73 53.86 51.81 47.53 43.78 42.79 47.87 49.06 37.63 32.80 36.02 38.01 39.10 39.02 37.42 38.63 37.62 38.93 38.26 35.25 32.17 32.57 31.81 36.09 35.85 32.24 27.89 30.11 25.31 19.54 20.30 24.07 26.77 23.66 23.44 23.41 19.24 15.10 10.09
62.01 61.61 60.76 59.73 58.62 57.16 54.98 54.25 54.17 53.83 53.23 48.13 44.23 40.09 43.24 42.09 39.34 36.80 35.20 34.88 35.09 38.35 37.70 38.12 37.19 38.46 36.56 34.28 35.10 31.49 31.45 35.48 35.59 33.81 38.79 33.94 25.54 23.81 20.21 23.03 23.43 20.81 23.41 23.52 18.40 7.53 7.19
59.17 61.37 60.83 59.91 58.68 57.70 55.57 54.60 54.35 53.71 53.26 48.06 44.46 40.45 40.16 36.86 37.58 36.14 35.97 35.99 34.31 34.07 36.89 37.44 35.88 37.03 35.88 30.24 32.35 31.07 31.49 31.25 33.77 36.41 31.31 30.02 24.06 23.84 23.41 25.50 25.09 24.25 24.32 23.13 12.95 17.71 9.99
57.92 61.11 60.78 59.96 58.87 58.00 55.99 54.83 54.08 53.19 52.44 47.01 41.52 40.75 38.55 33.53 38.70 37.65 35.61 33.85 35.40 34.70 35.05 34.81 35.33 34.68 35.13 33.04 33.28 32.08 32.24 29.93 29.38 29.76 27.36 28.25 23.75 23.57 21.33 25.50 24.39 23.60 24.75 23.99 23.56 21.96 20.33
56.60 58.13 60.33 59.70 58.98 58.14 56.45 54.50 53.61 52.76 50.95 44.25 42.61 44.09 42.06 36.88 37.57 35.24 34.96 36.08 36.88 35.60 34.54 35.53 35.26 32.15 30.94 31.23 31.23 29.71 30.00 29.84 29.91 28.53 26.95 25.75 23.85 20.57 19.47 23.04 22.79 20.14 23.00 22.91 22.07 21.46 20.64
55.44 56.71 59.33 59.54 58.95 58.08 56.95 55.25 54.29 52.90 50.85 47.03 43.63 44.54 39.67 33.19 36.47 37.63 38.16 36.73 35.37 34.46 34.20 33.51 34.68 32.51 32.46 33.88 32.93 32.51 30.93 30.09 29.77 27.91 28.61 25.70 22.49 20.03 16.02 19.42 16.19 22.25 25.52 25.01 22.97 23.34 22.89
54.77 55.84 57.34 59.53 58.97 57.96 57.06 55.84 55.08 53.67 52.05 46.90 45.79 46.98 40.17 31.84 34.72 35.13 34.70 32.43 32.40 31.62 30.86 31.37 32.57 31.70 34.20 33.95 27.12 27.43 27.34 27.29 27.66 27.54 26.98 27.06 24.38 15.09 16.43 16.60 21.61 21.91 24.42 22.78 21.03 20.70 24.83
52.88 55.22 56.32 58.35 58.89 57.75 56.80 55.60 54.80 53.76 52.55 46.57 44.40 45.98 40.94 36.02 33.53 36.51 33.87 32.99 30.23 26.72 27.86 31.20 33.53 35.12 36.31 29.95 27.86 23.74 24.92 25.24 24.65 24.48 27.58 26.66 24.79 21.18 11.92 12.73 18.08 23.07 25.72 27.96 25.59 17.22 24.91
51.51 53.36 55.39 56.25 58.84 57.92 57.13 55.87 54.77 53.31 52.98 46.65 43.29 44.75 40.51 33.30 32.95 34.31 33.21 33.27 33.07 29.11 26.01 29.03 30.88 30.71 33.59 28.34 25.32 23.04 23.26 25.99 25.02 23.44 22.98 18.23 15.71 15.36 17.08 11.08 20.98 25.55 27.07 28.32 16.33 17.61 25.46
50.27 51.70 54.36 55.49 58.55 57.93 57.30 56.16 54.60 53.37 53.48 46.11 40.92 42.46 40.60 32.11 31.40 34.70 34.81 35.51 33.37 31.00 27.26 29.18 30.01 28.96 27.14 29.71 25.44 24.11 24.43 24.54 23.10 23.97 23.89 23.13 17.90 15.03 13.44 10.16 19.68 27.54 25.80 20.58 22.51 25.62 27.34
49.46 50.68 52.31 54.44 55.46 57.71 57.09 56.11 54.64 53.87 53.40 46.78 39.83 40.52 40.24 35.12 32.18 35.54 35.48 35.42 34.77 35.28 31.57 29.47 33.53 29.78 33.29 29.99 25.44 24.43 24.50 21.72 23.57 23.89 23.34 20.59 25.26 23.26 23.65 23.65 26.49 26.96 26.19 28.08 27.90 26.45 26.99

GFSGBSN_sfc_wetblb_252.txt.gz
Wetbulb
63.26 63.11 63.00 62.77 61.24 60.58 59.85 60.20 60.05 59.64 60.47 61.33 62.02 62.41 62.65 62.39 62.19 62.26 62.27 62.25 62.56 63.18 63.28 62.56 63.03 63.00 50.77 43.98 43.14 50.62 62.60 57.39 51.81 51.09 50.19 50.52 47.70 44.90 41.06 41.14 40.54 36.94 36.75 37.99 37.97 37.27 35.67
63.51 63.20 62.97 62.57 61.65 60.20 59.50 59.51 59.65 59.29 60.06 60.82 61.59 62.29 62.25 61.84 61.47 61.66 61.77 62.01 62.36 62.74 62.06 62.28 63.33 60.34 45.56 40.35 48.09 49.20 48.30 50.99 50.17 49.23 47.96 49.24 47.49 46.40 41.93 38.98 37.11 36.81 36.79 36.22 36.84 35.89 35.91
63.37 63.25 63.03 62.51 61.90 60.06 59.22 59.16 59.26 58.96 59.67 60.47 61.16 61.68 61.79 61.18 60.89 61.17 61.52 61.72 62.04 61.98 61.80 62.75 62.77 49.26 45.17 42.61 48.52 48.62 48.53 49.00 49.21 48.57 47.03 46.28 49.08 46.24 43.42 38.16 39.95 38.38 33.27 34.57 34.04 34.69 33.75
63.05 62.90 62.68 62.36 61.84 59.68 59.15 59.11 59.33 59.41 59.25 60.12 60.64 60.48 60.91 60.49 60.38 60.73 61.16 60.97 61.10 61.39 62.22 62.47 59.90 46.11 41.37 48.72 48.60 48.08 48.21 48.60 49.57 48.00 47.69 46.78 47.80 44.70 42.23 41.95 40.10 36.52 34.87 30.80 33.33 34.83 34.76
63.07 63.18 62.64 62.14 61.58 59.34 59.37 59.66 59.23 59.20 59.34 59.61 59.99 59.71 60.03 60.18 59.92 60.44 60.43 60.68 61.59 61.71 60.66 60.23 47.83 43.31 39.44 53.53 47.21 47.33 46.25 46.62 47.88 47.31 46.95 48.31 44.26 40.04 38.87 35.97 32.76 32.59 27.97 29.72 31.61 35.49 34.07
63.30 63.53 63.34 61.99 61.14 59.03 58.37 58.56 58.82 58.96 59.23 59.13 59.60 59.07 59.04 59.27 59.40 59.71 59.59 60.76 60.19 56.76 52.26 49.25 48.32 42.45 44.98 43.83 46.52 46.75 45.41 47.65 46.04 45.31 44.25 41.92 38.19 34.06 32.10 31.56 27.77 27.27 26.81 28.96 28.34 30.02 30.69
63.78 63.88 63.57 61.84 60.88 58.84 57.81 57.91 58.44 58.75 59.14 59.05 58.94 58.48 58.36 58.74 59.05 58.90 54.81 51.40 45.00 44.78 45.59 41.59 41.16 41.90 43.90 46.43 46.27 45.20 44.88 45.07 44.71 40.99 36.19 36.68 33.43 28.03 29.37 30.06 32.18 30.27 28.57 27.26 28.12 31.96 28.61
63.84 63.45 62.99 61.55 61.01 59.40 58.42 58.03 58.30 58.48 59.04 58.79 58.55 58.20 58.04 58.40 58.29 56.10 50.98 46.29 43.13 45.72 41.91 44.31 43.73 43.96 45.48 43.71 42.37 44.65 46.40 40.50 38.75 34.72 35.96 33.93 28.93 32.49 35.13 34.75 32.74 30.60 27.56 25.32 28.97 32.06 28.19
63.32 63.08 62.74 61.54 60.86 59.22 58.43 58.06 58.18 58.18 58.76 58.60 58.21 57.47 57.75 58.10 57.44 52.92 49.38 48.66 51.73 46.95 42.12 43.90 43.94 43.23 43.54 44.77 39.95 40.89 43.41 39.59 35.60 33.64 32.43 30.88 32.19 36.07 35.46 31.01 30.17 28.65 26.39 24.64 25.82 28.35 28.21
62.91 63.21 62.58 61.42 60.69 59.01 57.88 57.74 58.01 57.84 58.48 57.75 56.85 56.87 57.65 57.75 52.93 48.96 48.82 51.11 51.48 47.59 36.09 39.89 42.39 44.32 45.11 44.32 40.20 42.86 42.12 40.66 37.86 32.87 32.40 31.37 34.43 33.67 32.18 30.21 29.45 25.33 30.04 29.27 28.72 25.78 20.58
62.98 63.25 62.53 61.29 60.47 58.83 57.21 57.18 57.72 57.53 58.02 56.96 56.73 56.60 56.56 55.72 49.85 48.51 49.79 51.37 51.24 48.17 29.48 40.80 42.03 46.72 44.04 41.73 40.61 42.67 42.24 40.45 33.60 32.64 33.39 28.43 31.24 30.27 29.97 29.91 30.43 28.70 30.50 28.84 28.67 24.29 21.77
62.98 62.92 62.57 61.26 60.27 58.65 56.82 56.97 57.50 57.28 57.81 56.98 56.49 56.08 55.89 51.40 49.63 50.16 51.29 49.28 49.75 38.93 29.46 38.32 41.72 40.91 40.45 40.71 39.06 40.63 38.35 39.67 38.20 34.99 33.76 30.79 34.16 32.18 30.29 32.40 31.80 31.70 29.01 28.98 26.12 23.86 19.13
62.72 62.59 62.01 61.20 60.19 58.75 56.83 56.89 57.40 57.36 57.73 57.07 55.79 55.64 53.34 51.72 47.80 49.82 49.72 48.09 38.79 34.22 39.43 36.13 37.22 39.68 37.89 36.70 36.66 35.89 32.62 29.88 29.05 29.16 27.11 30.91 30.32 32.63 32.44 28.55 30.72 27.05 23.61 20.71 21.36 19.39 18.30
62.96 62.45 61.41 60.75 59.94 58.97 57.02 56.65 57.08 57.25 57.01 56.33 54.67 53.92 52.15 50.73 48.19 49.25 47.83 43.27 33.46 36.39 35.59 39.91 38.55 38.11 35.61 35.75 33.83 33.24 30.95 28.49 30.40 28.37 25.83 25.43 26.92 29.36 32.40 26.80 23.13 23.90 21.66 19.07 18.90 16.71 16.51
62.58 62.11 61.20 60.47 59.84 59.21 57.20 56.41 56.81 56.98 56.12 54.82 52.70 47.45 47.10 47.80 48.76 48.53 44.75 35.79 36.19 36.04 39.47 38.54 37.85 34.57 32.93 35.96 34.78 32.10 27.65 27.67 28.34 28.34 26.21 24.56 24.82 30.77 31.14 28.88 26.19 24.10 20.35 22.01 18.87 15.40 13.25
62.25 61.90 61.19 60.41 59.68 58.91 57.33 56.37 56.89 56.63 55.62 54.03 46.26 45.47 45.63 47.26 48.02 46.92 41.99 38.51 37.45 39.23 39.47 38.78 33.80 34.66 31.81 31.93 31.97 30.66 28.20 29.58 30.28 31.95 29.19 25.79 23.95 27.96 30.99 29.93 28.94 25.92 24.70 19.92 18.26 8.82 12.84
61.60 62.09 61.47 60.53 59.46 58.39 57.32 56.13 56.57 56.18 54.66 53.24 46.15 43.99 46.80 46.30 47.10 43.44 37.81 35.78 37.84 39.70 39.09 36.75 35.03 34.40 33.03 31.99 30.70 28.24 28.24 30.52 32.11 32.23 29.73 25.99 26.05 24.39 27.68 23.74 20.39 23.15 20.80 18.57 17.71 15.30 7.51
59.51 61.77 61.72 60.77 59.40 58.16 57.52 56.03 55.74 55.06 52.70 49.05 43.40 40.77 46.03 46.50 40.47 32.94 34.96 37.27 41.80 37.42 38.34 37.80 37.75 36.56 34.27 32.75 30.29 28.71 29.05 29.34 32.80 32.48 27.38 26.98 24.38 20.97 20.55 24.83 26.70 22.82 18.92 18.08 12.90 10.81 9.34
57.78 59.18 61.43 61.03 59.60 58.15 57.46 55.95 54.84 53.92 51.32 45.50 42.01 40.55 45.50 46.15 36.34 31.71 33.78 35.38 36.78 36.74 35.29 36.41 35.62 37.06 35.76 32.79 30.12 30.03 29.17 33.56 33.25 30.16 27.86 29.07 23.97 21.11 21.00 21.71 24.54 21.04 21.62 20.00 16.96 13.48 7.36
56.63 57.10 58.56 61.25 59.71 58.18 57.27 55.94 54.41 53.81 52.68 45.91 41.33 38.80 41.08 38.87 36.30 35.53 33.88 33.16 33.18 35.89 35.39 36.27 35.67 36.53 34.66 31.93 32.53 29.75 28.71 32.99 32.81 31.53 39.47 32.52 23.59 24.46 22.24 23.19 23.23 20.71 22.95 21.11 16.78 7.09 6.15
54.46 56.35 56.84 58.39 60.04 58.45 57.54 56.48 54.77 53.70 52.72 47.12 41.86 38.25 37.71 36.00 35.56 34.38 33.84 33.89 33.08 33.11 34.52 34.93 33.51 35.16 35.02 29.26 29.87 29.17 29.16 28.72 31.00 36.77 28.56 28.20 24.14 21.11 21.66 23.64 23.99 23.42 23.42 20.81 12.98 16.58 11.05
53.19 54.68 55.88 57.26 59.71 58.82 57.78 56.62 54.79 53.29 51.90 44.75 41.29 40.36 36.84 30.98 34.84 35.13 33.07 32.73 33.74 32.18 33.41 33.54 34.40 33.85 32.77 32.63 32.95 31.11 30.19 28.09 27.68 27.02 25.03 26.14 22.63 21.31 20.26 23.25 22.73 22.81 23.83 22.08 21.43 20.10 17.12
52.02 53.08 54.43 55.92 57.75 59.14 57.75 56.57 54.09 52.75 49.56 42.27 41.52 41.17 41.14 34.90 33.33 33.74 33.49 33.05 34.83 34.12 32.17 32.90 34.31 32.45 31.09 30.53 30.64 28.84 28.24 28.27 29.17 27.50 25.05 24.21 22.68 20.24 18.77 20.49 22.03 20.87 22.53 22.51 21.59 20.29 20.13
50.14 51.98 53.24 54.37 56.34 58.38 58.12 57.28 54.75 52.68 50.48 43.94 42.15 41.56 39.58 32.16 34.45 34.93 34.99 34.39 32.89 31.73 32.28 30.72 31.85 31.85 30.22 31.29 30.88 31.88 29.47 28.12 27.74 25.46 26.85 23.50 21.63 18.55 15.35 18.96 18.02 22.54 22.97 23.97 23.59 22.92 21.69
49.70 50.59 51.91 53.72 54.22 55.72 57.65 57.61 55.85 53.22 50.81 44.23 43.37 42.69 39.13 29.82 33.91 32.70 33.13 30.14 30.21 29.37 29.58 29.99 30.55 29.39 31.09 31.33 27.44 27.45 27.26 26.63 25.04 24.97 25.42 25.65 21.62 12.76 16.85 17.15 23.46 21.03 23.19 22.17 21.70 21.71 23.39
49.13 49.59 50.58 52.42 53.27 54.30 56.52 57.31 55.88 53.57 51.69 45.07 43.07 42.69 40.39 35.49 33.42 35.27 31.77 30.42 28.99 25.57 26.84 28.98 31.87 32.22 34.11 29.07 28.01 23.36 25.43 26.55 24.15 22.63 24.35 25.65 22.72 20.38 10.72 15.67 20.22 23.54 23.81 25.45 24.04 19.14 23.56
48.75 48.82 49.53 50.86 52.27 52.71 54.50 57.50 56.27 53.75 52.17 44.76 41.39 41.84 39.89 32.95 32.28 32.62 32.30 32.06 31.08 28.43 25.80 27.26 29.37 28.13 32.02 25.40 24.31 24.33 24.79 26.09 25.95 24.08 21.93 16.71 13.68 14.51 15.39 13.46 22.82 25.04 25.03 25.99 18.43 21.86 23.68
48.23 48.58 48.76 49.42 50.86 52.02 52.88 54.78 56.53 54.06 52.58 45.00 39.33 39.07 39.97 32.46 30.67 33.14 33.96 31.58 29.79 30.04 28.14 28.14 29.40 28.36 26.21 25.71 27.15 25.82 25.25 24.33 23.51 24.35 24.21 23.51 17.65 14.06 12.24 11.91 22.88 25.07 23.74 22.21 23.80 23.47 25.19
47.66 48.03 48.34 49.00 49.39 50.45 51.91 53.15 55.99 54.83 53.31 46.17 38.90 38.68 38.94 35.57 32.35 33.72 33.52 34.03 33.46 33.29 30.59 27.46 32.07 28.26 31.51 29.20 25.88 24.27 24.36 20.82 23.65 24.49 21.53 22.40 26.10 24.12 25.18 26.24 25.12 26.54 24.12 25.91 26.15 24.48 25.26

GFSGBSN_sfc_wetblb_255.txt.gz
Wetbulb
64.11 63.41 63.30 63.00 62.63 61.07 60.48 60.79 60.30 59.91 60.64 61.48 62.01 62.33 62.50 62.30 62.28 62.22 62.01 62.04 62.41 62.95 63.40 62.87 62.95 62.86 52.68 45.72 45.72 50.39 61.83 57.78 52.36 52.63 51.77 53.37 49.92 47.42 43.43 42.51 42.13 39.10 38.50 38.01 38.48 37.85 36.86
64.19 63.60 63.36 62.91 62.56 61.34 60.10 60.04 60.13 59.42 60.21 61.03 61.64 62.22 62.01 61.71 61.58 61.81 61.87 61.97 62.34 62.84 62.68 62.47 63.19 60.25 47.90 43.18 49.41 49.62 48.41 50.66 50.21 51.37 49.65 50.98 49.11 47.36 41.26 38.77 38.69 38.36 37.51 36.89 37.43 36.74 36.61
63.84 63.45 63.38 62.99 62.50 61.37 59.73 59.44 60.02 59.30 59.64 60.89 61.20 61.52 61.50 60.88 60.86 61.12 61.61 61.80 61.69 62.05 62.23 62.89 62.56 49.21 46.56 45.40 49.95 48.89 50.09 48.88 49.11 50.31 48.91 48.38 50.47 47.61 43.95 38.74 40.97 38.88 34.64 36.55 36.75 36.55 34.99
63.24 63.17 63.18 62.76 62.33 61.26 59.62 59.75 59.82 59.62 59.19 60.20 60.58 60.49 60.80 60.13 60.35 60.86 61.30 61.17 61.21 61.49 61.96 61.92 57.97 48.01 44.94 49.56 50.07 48.53 49.25 50.46 50.00 48.95 48.66 49.44 50.16 46.37 43.30 42.80 41.56 38.31 37.58 34.39 35.86 36.07 36.24
63.13 63.17 63.43 62.95 62.05 60.97 59.95 59.75 59.55 59.35 59.41 59.60 60.01 59.61 60.02 59.83 59.64 60.30 60.41 60.92 61.16 60.16 60.52 59.88 49.39 46.59 43.85 54.48 47.78 48.01 48.14 48.37 49.47 48.47 48.02 48.19 45.63 42.42 40.76 39.64 36.82 36.30 34.21 33.82 32.77 36.80 35.63
63.45 63.57 63.60 62.94 61.61 60.59 59.03 59.09 59.21 59.17 59.21 59.19 59.70 58.87 59.00 58.98 59.11 59.61 59.63 60.59 59.83 56.71 52.29 49.42 48.30 45.10 46.40 44.57 46.99 46.84 46.98 47.88 46.51 47.58 45.89 43.41 40.51 37.69 36.02 35.97 33.75 33.01 32.96 33.42 32.47 33.24 32.20
63.93 63.79 63.57 62.36 61.44 60.61 58.68 58.59 58.92 58.94 58.78 59.38 59.25 58.31 58.29 58.77 58.98 59.23 54.23 52.14 45.98 46.05 46.21 43.29 43.11 43.17 44.13 46.91 46.98 45.36 45.34 46.22 46.15 42.24 39.03 38.40 36.11 32.25 33.18 34.32 34.09 33.68 33.37 31.46 31.49 33.61 30.74
63.86 63.49 63.07 62.30 61.51 60.89 59.00 58.29 58.54 58.62 58.55 59.16 59.07 58.00 57.88 58.40 58.43 56.97 51.01 47.06 44.88 46.95 42.80 44.97 44.28 44.52 46.03 44.85 43.53 44.69 45.89 41.88 40.53 37.58 39.10 37.29 32.47 34.93 35.55 34.88 34.93 33.68 31.78 30.52 31.52 33.40 29.62
63.45 63.36 62.92 62.36 61.34 60.70 59.07 58.14 58.23 58.27 58.30 58.93 58.57 57.57 57.85 58.13 57.39 52.86 50.13 49.81 51.87 48.60 42.91 44.48 44.69 44.20 44.72 44.72 40.43 41.00 43.91 40.83 37.14 35.51 34.47 33.89 34.75 36.55 36.68 32.16 32.04 32.79 31.80 29.50 29.58 30.28 30.19
63.23 63.07 63.28 62.23 61.14 60.36 58.74 57.60 57.96 57.93 57.89 58.32 57.75 57.39 57.40 57.40 52.81 49.33 49.77 51.79 51.99 48.46 37.49 40.53 42.93 44.95 45.41 44.57 40.91 43.62 42.55 42.17 38.87 34.64 34.12 33.69 35.89 34.34 34.06 31.37 31.76 30.77 31.72 30.57 29.80 29.13 26.26
63.46 63.16 62.94 62.12 60.97 60.23 58.27 56.99 57.60 57.69 57.40 57.58 57.28 56.81 56.60 55.18 49.92 47.72 50.36 51.72 51.11 49.15 31.21 41.17 42.44 47.55 44.15 42.32 41.72 42.70 42.86 40.89 35.48 34.92 37.26 33.73 33.03 31.84 31.73 31.62 32.83 31.08 31.80 31.50 30.12 28.16 27.11
63.50 63.24 62.78 62.04 60.81 60.01 58.12 56.90 57.26 57.64 57.28 57.34 57.19 56.46 56.00 51.23 49.73 49.52 51.30 49.89 49.91 40.06 32.07 39.10 42.42 41.49 41.21 40.47 39.26 40.63 39.21 40.64 39.65 36.34 35.26 33.78 36.41 34.47 33.41 33.36 33.65 32.06 32.20 30.98 29.43 28.66 25.04
63.13 62.84 62.39 61.61 60.85 59.82 58.35 57.00 57.10 57.72 57.39 56.80 56.40 55.68 53.09 50.97 48.24 49.86 49.44 48.42 39.97 35.37 40.28 37.10 38.15 40.34 38.44 37.00 37.23 36.27 33.49 31.44 32.26 33.14 31.22 33.84 32.89 34.22 33.58 31.56 32.83 29.82 28.29 26.47 26.26 25.07 24.31
62.98 62.69 62.10 61.21 60.47 59.68 58.82 57.05 56.90 57.44 57.06 56.01 54.98 53.42 51.69 49.96 47.99 49.42 47.43 43.12 34.00 36.97 36.41 40.04 39.08 38.71 36.72 36.73 35.02 33.96 32.91 30.82 32.11 31.20 29.20 29.96 30.93 31.06 32.97 29.92 27.46 27.14 26.66 25.52 22.84 21.91 22.45
61.78 62.38 61.87 61.06 60.33 59.64 58.97 57.09 56.72 57.16 56.26 54.90 52.81 47.03 46.66 47.26 48.52 48.40 44.04 35.56 36.36 37.45 39.71 38.64 38.64 36.30 34.89 36.89 35.88 33.56 30.19 30.17 31.03 31.26 31.03 28.98 29.79 32.66 31.86 30.80 29.49 27.86 24.98 26.98 22.82 21.31 19.49
59.82 61.26 61.77 61.14 60.19 59.28 58.78 57.39 56.92 56.83 55.59 53.76 45.86 45.11 45.32 46.43 47.37 47.46 40.79 37.40 38.08 39.87 39.89 38.80 35.68 36.29 33.84 34.25 34.20 33.41 31.02 31.83 32.11 33.77 32.82 29.90 28.84 30.41 32.24 31.93 30.36 29.06 28.42 24.83 23.58 17.97 19.58
58.37 58.79 61.59 61.27 60.07 58.86 58.34 57.42 56.67 56.42 54.47 52.79 45.73 43.75 46.16 45.74 46.76 44.06 36.86 35.94 38.85 40.17 39.55 38.12 36.34 35.52 34.60 33.86 32.90 31.32 30.94 32.15 33.58 33.68 32.42 30.16 30.13 29.25 31.22 26.95 25.89 26.89 25.20 21.91 22.52 20.28 19.34
56.95 57.68 59.03 61.40 60.12 58.80 58.27 57.57 55.91 55.16 52.85 48.49 43.15 40.91 45.53 45.91 40.35 33.40 36.10 37.99 41.77 38.06 38.80 38.36 38.53 37.42 35.17 33.81 32.34 31.22 31.61 31.75 34.13 34.35 30.84 30.89 28.18 26.43 26.16 28.46 29.38 27.01 24.30 23.38 22.16 17.63 13.85
55.20 56.29 57.73 58.81 60.41 58.91 57.94 57.56 55.31 53.98 51.00 44.89 41.75 40.39 45.06 45.79 36.23 32.63 33.79 35.74 37.11 37.23 36.39 37.21 36.26 37.84 36.44 33.96 32.09 31.38 30.70 34.49 34.61 32.06 30.55 31.49 27.89 26.11 26.91 26.98 28.28 25.97 24.28 21.94 19.93 18.21 14.41
53.38 54.59 56.33 57.59 58.26 59.06 57.82 57.24 55.25 53.86 52.62 44.89 40.75 38.39 40.61 38.70 36.06 35.51 33.72 33.58 34.12 36.04 35.81 36.62 36.21 37.07 35.36 32.81 33.08 30.35 30.11 33.81 33.45 33.09 39.16 33.62 26.66 28.63 27.91 28.43 26.81 23.45 23.76 22.64 21.83 18.64 15.84
51.39 53.58 54.72 56.34 57.03 59.19 58.14 57.46 55.89 53.91 52.80 47.01 41.06 38.10 37.47 36.12 36.55 34.57 34.61 34.17 33.31 33.62 34.94 35.28 34.12 36.13 35.73 30.54 31.29 30.03 30.48 30.13 32.14 38.01 30.77 30.36 27.90 26.01 26.08 26.90 26.87 26.32 24.63 22.29 17.79 21.21 20.58
50.55 52.06 53.63 55.25 55.52 56.47 58.52 57.54 55.99 53.56 52.01 44.72 40.75 39.61 36.03 30.43 34.37 35.04 33.97 33.06 34.06 32.73 33.92 34.03 34.55 34.87 34.61 33.36 33.89 31.67 30.25 29.18 29.28 29.38 28.39 28.18 26.48 26.09 25.06 26.30 26.00 24.61 25.65 24.13 22.80 21.86 20.26
50.45 50.63 52.24 53.41 54.64 55.00 57.11 57.26 55.62 52.81 49.04 42.51 41.18 40.21 40.81 33.44 32.55 33.67 33.97 33.56 34.69 34.20 32.15 32.42 34.62 33.41 33.02 32.37 32.16 30.44 29.28 29.03 30.13 28.54 26.52 26.86 25.32 23.90 24.14 24.04 24.16 24.34 24.97 24.30 24.01 23.36 23.63
50.00 50.28 50.62 52.31 53.65 54.03 54.92 57.60 56.58 53.24 50.36 44.23 42.65 41.07 38.87 32.11 33.34 34.08 34.38 34.07 32.82 32.33 32.64 30.83 32.20 33.15 31.00 32.10 31.52 32.99 30.09 28.68 28.65 26.87 28.07 25.40 24.13 21.92 21.60 23.63 23.88 27.96 26.95 27.14 26.37 25.60 24.71
49.60 49.70 50.30 50.38 51.94 53.41 53.74 56.50 57.54 54.30 51.13 44.55 42.74 41.71 38.61 29.92 33.56 32.39 32.95 30.24 30.19 29.50 29.65 30.20 30.37 29.82 31.01 32.02 28.87 28.62 28.50 28.93 26.48 26.04 26.15 26.59 24.34 17.68 22.56 22.00 27.70 24.66 25.60 24.92 25.54 26.57 25.85
49.25 49.54 49.45 49.82 50.07 51.84 52.92 53.89 57.13 55.02 51.46 44.99 43.82 42.34 40.09 35.31 34.11 34.92 31.74 30.64 29.21 26.32 27.33 28.74 30.87 32.83 34.34 30.37 29.34 25.45 27.40 27.94 26.13 24.88 27.29 26.52 24.57 24.97 17.37 21.64 24.13 28.90 26.72 27.69 28.08 24.38 26.16
48.41 48.71 49.14 49.14 49.00 49.85 51.47 52.90 54.36 55.21 52.09 44.95 42.09 41.44 39.63 33.16 32.78 32.72 31.98 31.67 31.62 29.08 26.10 26.89 29.21 29.22 32.53 27.00 27.14 27.16 27.81 28.17 28.10 26.14 23.25 19.99 17.70 20.27 20.10 21.35 27.19 28.60 26.52 27.92 25.51 29.05 26.21
47.34 47.84 48.38 48.75 48.60 48.84 49.37 51.13 52.97 55.35 53.03 45.50 39.67 38.98 40.05 32.55 31.05 32.88 34.45 31.28 30.13 30.67 28.28 28.19 29.72 28.93 27.37 26.87 28.65 27.60 27.61 26.37 26.02 26.63 25.51 25.36 20.92 19.38 16.95 18.66 26.80 26.33 25.38 26.62 29.45 26.18 27.27
47.54 48.25 48.61 48.16 47.61 48.58 48.88 49.39 51.41 53.04 53.53 46.39 39.22 38.24 38.50 35.21 32.43 33.10 33.23 33.67 33.53 34.23 30.41 27.37 32.70 28.76 32.12 29.74 27.17 26.47 26.23 23.36 26.60 27.61 24.52 25.88 28.97 27.85 28.32 30.43 27.94 28.04 28.70 28.53 28.26 27.53 27.25

GFSGBSN_sfc_wetblb_261.txt.gz
Wetbulb
64.17 63.41 63.47 63.51 63.41 62.99 61.60 61.23 60.92 60.77 60.23 61.02 62.03 62.68 62.77 62.52 62.43 62.69 62.53 62.75 63.07 63.72 63.83 63.68 63.67 64.00 59.07 53.32 51.55 56.17 66.31 65.70 59.80 59.29 58.79 58.01 55.75 55.11 50.54 49.76 49.78 46.65 46.01 46.14 45.64 44.36 42.86
63.69 63.30 63.47 63.59 63.49 62.87 61.40 60.68 60.75 60.18 60.17 60.62 61.45 62.09 62.32 62.02 61.88 61.95 62.18 62.46 63.07 63.21 62.91 63.20 63.55 61.98 54.61 50.14 55.15 56.56 56.56 58.03 58.38 58.92 57.76 58.31 55.61 54.92 50.03 47.86 48.44 47.56 45.33 43.55 43.23 41.88 41.59
63.22 63.42 63.70 63.85 63.59 62.74 61.44 59.98 60.51 60.09 59.91 60.31 61.06 61.09 61.41 61.16 61.14 61.24 61.77 61.87 62.19 62.23 62.64 63.77 63.87 56.02 54.12 50.52 55.47 56.53 56.16 56.49 58.61 58.47 55.84 56.52 56.05 54.01 50.95 45.79 48.19 45.71 41.57 42.27 42.14 42.31 40.28
63.12 63.26 63.88 63.98 63.51 62.43 61.71 60.27 60.02 60.13 59.45 59.78 60.62 60.47 60.57 60.45 60.50 60.98 61.32 61.37 61.41 62.12 61.53 61.58 59.63 54.62 51.06 54.45 56.86 54.76 56.26 55.09 56.59 57.53 56.33 56.36 55.93 52.33 50.45 49.15 46.57 44.51 44.38 40.75 42.06 41.94 41.28
63.30 63.71 63.91 63.88 63.11 62.11 61.95 60.70 59.88 59.78 59.75 59.21 60.09 59.81 60.03 59.93 59.92 60.64 60.89 60.95 61.99 60.88 61.70 59.84 55.22 53.90 50.25 55.20 52.93 53.77 54.75 52.88 53.50 53.68 53.45 53.45 53.67 50.40 49.73 47.94 45.50 44.49 43.30 42.90 39.83 43.03 41.50
63.55 63.91 63.91 63.46 62.70 61.98 61.76 60.64 59.69 59.57 59.56 59.09 59.65 59.68 59.12 59.10 59.57 60.16 60.23 60.46 61.74 57.56 57.73 54.63 54.30 51.85 51.97 49.89 51.72 52.55 54.19 53.04 52.70 51.94 51.67 51.28 51.24 47.80 47.13 45.30 41.20 41.84 42.27 42.05 41.39 41.80 40.95
63.69 63.95 63.67 63.31 62.60 61.87 61.64 60.39 59.30 59.29 59.18 58.94 59.52 59.30 58.53 58.82 59.31 59.51 59.90 58.98 56.06 53.36 53.91 50.41 50.24 49.69 50.39 52.25 53.07 51.61 51.82 51.50 52.30 51.47 48.75 49.13 47.99 42.54 40.98 41.82 42.41 42.19 41.55 40.20 39.48 40.46 39.46
63.86 63.88 63.55 63.29 62.81 62.01 61.51 60.29 58.98 58.94 59.02 58.67 59.10 58.99 58.29 58.38 58.43 58.13 58.97 55.78 54.76 55.83 49.71 50.90 50.42 50.87 51.17 51.23 49.66 50.82 53.58 49.72 50.08 47.83 47.85 47.37 42.74 42.45 42.07 41.77 41.86 41.84 40.46 40.32 38.90 39.14 38.35
63.83 63.94 63.41 63.40 63.00 61.96 61.34 60.38 58.70 58.42 58.84 58.59 58.48 58.51 58.25 58.11 57.94 59.31 58.11 56.69 58.55 56.52 51.34 49.76 50.58 50.19 50.25 51.65 47.48 47.49 50.91 49.08 47.95 46.25 46.31 44.40 41.20 42.05 41.18 40.53 40.31 40.67 38.51 37.77 36.90 37.79 38.40
63.73 63.86 63.55 63.20 63.02 62.11 61.16 60.17 58.49 58.11 58.31 58.16 57.68 57.87 57.95 57.37 56.47 59.23 57.19 58.81 60.45 58.37 47.63 47.72 48.33 49.69 50.63 50.58 46.67 49.08 48.91 48.86 47.30 44.42 44.78 42.41 41.65 40.31 40.58 38.99 39.07 39.36 37.77 36.60 36.41 35.83 36.52
63.38 63.93 63.50 63.01 62.62 61.98 60.70 59.73 58.55 57.80 57.81 57.67 57.15 57.17 56.86 55.94 59.21 56.44 58.56 61.24 61.10 57.87 41.20 47.25 47.83 52.50 50.24 48.60 47.96 47.64 49.15 49.30 45.84 44.22 44.60 40.53 40.53 40.20 39.37 37.58 38.84 37.13 39.37 38.48 38.55 37.53 37.02
62.27 63.82 63.50 62.83 62.34 61.50 60.37 59.59 58.73 57.66 57.65 57.69 56.80 56.47 55.97 58.96 59.90 59.21 60.67 60.43 59.02 47.22 40.36 45.06 48.19 47.56 47.51 47.55 46.49 47.72 47.51 48.82 47.19 44.74 44.41 41.16 42.04 40.57 38.22 38.95 38.22 38.56 39.45 38.91 38.98 38.56 34.47
60.08 62.41 63.18 62.60 62.26 61.21 60.30 59.65 59.01 57.92 57.88 57.47 56.12 55.82 56.14 57.85 57.19 60.61 60.57 57.57 47.24 42.65 47.43 44.38 45.42 47.18 47.35 45.48 45.12 45.43 44.61 44.63 44.17 42.37 42.43 41.34 39.98 40.59 39.40 38.44 39.66 39.87 39.18 37.29 35.76 34.97 34.08
58.25 59.20 60.83 62.33 62.09 61.13 60.33 59.63 58.99 57.84 57.65 56.76 55.10 54.20 56.70 56.91 59.96 59.81 57.94 51.20 42.57 46.83 47.13 46.74 46.43 46.65 45.48 45.91 44.46 43.85 44.01 43.89 42.82 42.44 43.38 42.01 38.61 38.78 39.27 36.48 35.86 36.89 37.29 35.17 29.11 32.70 33.76
56.52 57.25 58.53 59.32 61.98 61.15 60.35 59.59 58.86 57.73 56.89 55.26 53.39 57.04 57.23 58.25 58.14 58.99 53.85 45.16 45.46 48.08 48.39 45.72 45.92 44.73 45.01 44.75 44.54 44.16 43.67 43.37 41.98 41.78 41.56 41.39 38.52 38.26 37.43 37.63 36.61 37.36 37.17 36.18 33.81 34.54 31.63
54.77 55.82 56.85 57.65 58.52 60.82 60.28 59.64 59.04 57.46 56.21 54.01 54.43 55.80 56.17 56.69 57.97 57.15 50.58 45.84 48.42 48.79 47.29 47.47 44.45 46.58 44.99 45.00 43.70 43.88 43.53 42.20 41.01 41.41 42.18 41.52 38.81 38.52 37.05 37.76 37.71 37.03 36.95 34.53 36.26 30.26 28.27
53.56 53.75 55.58 56.73 56.76 57.26 60.00 59.50 58.92 57.00 55.35 53.41 53.43 52.06 54.74 56.96 57.15 53.60 46.29 47.84 49.44 48.95 47.92 46.41 46.35 45.26 46.15 44.58 45.19 44.00 43.56 40.56 41.40 40.41 41.17 41.36 40.45 37.01 37.89 37.62 36.93 36.95 36.54 35.06 34.91 33.10 30.57
52.51 52.95 54.33 55.44 56.46 56.13 58.39 59.44 58.54 55.87 53.68 51.76 52.97 47.98 55.42 56.66 49.91 50.95 48.23 49.69 46.99 47.77 47.12 46.86 47.39 46.95 46.24 45.55 44.09 44.13 43.14 42.66 42.11 42.20 40.23 41.30 41.63 40.28 37.50 36.38 36.73 36.07 35.73 34.87 34.74 33.19 32.79
52.15 52.22 53.25 54.90 55.09 55.50 55.95 59.16 58.10 54.93 52.43 53.52 50.13 51.97 55.53 55.16 46.37 47.37 48.21 46.42 47.36 45.91 46.60 45.86 45.95 47.01 46.11 45.04 42.94 43.51 42.30 40.27 41.15 40.97 40.75 41.46 41.07 39.39 34.59 34.62 36.36 35.00 35.58 34.35 33.85 33.37 31.79
51.69 51.80 51.84 53.42 54.01 54.91 54.86 56.11 57.76 55.17 53.40 52.73 50.70 46.84 50.83 51.71 52.29 48.88 47.91 46.80 45.08 44.95 46.28 46.40 46.21 46.65 44.92 43.52 43.98 41.82 40.83 39.18 39.52 39.49 39.34 39.98 40.75 40.03 38.51 38.03 38.37 34.22 33.37 33.57 34.60 32.51 34.78
50.51 51.03 51.42 51.61 53.05 53.58 54.48 55.41 57.50 55.33 53.58 52.90 50.77 49.61 49.38 46.28 47.65 48.52 49.84 48.86 45.86 42.99 44.62 46.38 44.43 45.95 45.81 43.57 42.80 41.95 41.73 38.23 38.09 40.95 40.02 40.45 39.14 39.11 39.69 36.81 36.22 36.42 35.87 32.61 30.57 35.12 31.44
49.40 50.24 50.94 50.98 51.33 52.52 53.23 53.89 54.70 55.41 52.18 51.50 49.01 48.71 48.43 49.22 47.28 47.91 46.33 46.16 46.27 46.47 44.31 43.56 44.34 46.59 47.08 45.71 45.94 43.71 42.27 41.31 40.58 40.54 39.36 40.54 39.55 37.70 38.05 35.84 34.88 33.47 35.78 35.93 34.07 33.56 33.60
48.53 50.25 50.46 50.49 50.37 50.94 51.51 52.41 52.97 53.55 51.73 52.22 52.13 50.83 48.80 45.86 46.32 46.28 46.94 47.09 46.74 47.43 44.42 43.79 45.95 46.61 45.08 45.78 44.77 45.77 44.59 44.85 43.76 41.24 39.12 39.66 39.55 37.77 38.66 35.52 35.16 34.80 37.34 36.09 35.90 36.23 35.67
47.85 49.45 49.99 50.30 49.97 49.44 49.81 50.87 52.19 52.06 52.41 52.11 52.54 50.96 48.37 47.45 44.96 46.11 46.21 48.07 46.19 46.71 45.40 42.81 44.18 46.48 42.48 45.16 44.71 44.04 42.63 41.33 40.72 39.25 41.60 39.33 39.14 38.06 37.83 37.24 34.27 36.61 36.65 38.90 37.27 37.86 37.73
47.48 48.09 49.11 49.28 49.75 49.11 48.69 50.12 51.21 51.74 51.53 52.45 53.45 50.18 48.81 48.84 47.20 45.95 44.10 43.91 42.98 42.52 41.28 41.54 39.89 42.14 44.97 44.27 42.50 38.91 39.04 38.07 36.73 37.42 38.04 39.99 40.08 37.91 36.94 38.13 41.72 35.14 34.55 34.77 34.82 38.22 40.33
47.91 48.21 47.97 48.40 48.77 48.82 48.12 47.99 50.26 51.56 51.30 51.82 52.43 52.82 49.74 47.14 46.71 47.14 44.35 43.51 42.70 42.49 39.82 37.15 39.02 43.99 42.87 44.49 44.97 39.72 40.10 42.19 34.94 33.35 36.44 36.57 38.57 38.63 35.96 36.69 35.56 39.97 37.55 38.44 37.79 35.02 39.43
47.30 47.36 47.67 48.48 48.84 48.55 48.38 47.61 49.66 50.88 51.40 50.88 51.70 52.77 49.61 49.42 47.85 45.59 43.72 42.34 46.48 45.11 42.42 38.17 37.90 37.99 42.26 44.78 44.21 42.71 42.40 42.14 37.99 37.03 32.37 33.74 35.21 34.04 36.12 37.78 41.59 39.36 37.45 37.82 36.42 39.46 38.72
46.80 47.03 47.78 48.53 49.12 48.23 48.12 47.83 49.46 50.94 51.38 50.12 50.34 50.64 48.54 49.75 45.23 42.02 43.00 42.92 42.85 45.34 40.76 40.62 39.90 39.30 39.67 41.63 45.46 44.67 43.58 41.67 41.36 41.89 36.78 35.50 34.94 33.89 37.64 36.75 35.96 38.12 34.41 36.03 41.30 40.00 38.63
46.04 46.29 47.28 47.81 48.17 47.76 47.68 47.84 47.76 48.25 49.66 50.06 47.14 46.17 47.07 44.84 41.55 41.19 41.62 41.54 41.40 41.14 43.86 41.68 45.20 42.54 44.45 44.19 45.47 46.63 40.89 40.59 44.05 40.49 39.80 37.50 43.57 43.80 42.30 43.30 41.73 38.98 40.62 40.58 41.32 39.60 38.46

GFSGBSN_sfc_wetblb_264.txt.gz
Wetbulb
64.37 63.86 63.90 64.06 63.99 63.47 62.89 61.45 61.04 61.01 60.43 61.10 61.87 62.46 62.69 62.49 62.41 62.59 62.86 62.88 63.31 63.71 63.84 63.58 63.80 63.65 57.91 52.87 50.38 55.90 67.53 65.44 60.48 59.40 58.78 58.30 55.68 54.86 49.40 48.22 47.75 44.69 44.85 45.41 45.75 43.97 42.03
63.81 63.71 64.21 64.08 64.13 63.37 62.90 61.56 60.77 60.78 60.82 60.42 61.60 62.15 62.27 61.90 61.67 61.65 62.08 62.48 63.11 63.23 62.91 63.15 63.77 62.46 53.00 49.44 55.18 56.38 56.50 57.93 59.00 58.20 57.10 57.14 53.91 53.03 48.87 47.86 46.70 46.17 44.38 42.77 42.66 41.36 40.94
63.70 63.84 64.39 64.30 63.96 63.09 62.53 61.84 60.57 60.37 60.59 60.53 61.06 61.56 61.67 61.14 60.96 61.10 61.49 61.93 62.33 62.23 62.60 62.99 64.06 57.42 53.12 49.84 55.88 55.48 56.43 56.38 57.79 58.39 55.54 56.46 56.65 53.62 49.67 45.04 47.47 44.06 39.69 40.66 40.46 40.95 39.80
63.48 63.70 64.20 64.27 63.71 62.63 62.33 62.07 60.45 59.89 60.36 59.84 60.17 60.73 60.82 60.38 60.43 60.86 61.13 61.34 61.42 62.00 62.12 62.78 59.98 53.75 50.29 55.23 56.22 54.92 55.96 54.86 56.54 57.27 56.29 56.11 55.15 52.03 49.19 47.55 45.46 43.36 41.09 36.17 40.27 41.01 40.24
63.48 63.58 64.11 64.06 63.42 62.52 62.31 62.15 60.46 59.62 59.91 59.73 59.52 60.17 60.29 59.90 59.89 60.56 60.84 61.01 61.69 62.18 61.71 61.51 54.39 52.79 48.86 57.10 52.76 53.84 54.97 52.81 54.16 53.87 54.85 54.60 54.83 49.18 48.06 44.16 41.44 42.02 38.11 39.99 38.20 42.07 40.33
63.97 63.67 63.94 63.77 63.34 62.59 62.12 61.83 60.44 59.35 59.41 59.79 59.44 59.67 59.53 59.29 59.58 60.08 60.10 60.50 62.71 60.38 58.18 55.25 54.08 51.22 51.68 49.96 52.66 53.21 55.03 53.84 52.89 54.20 51.75 51.66 50.05 45.87 44.37 40.77 35.97 37.57 38.58 40.09 38.58 39.48 39.92
64.19 63.91 63.94 63.56 63.33 62.92 61.98 61.64 60.34 59.04 58.92 59.39 59.00 59.03 58.96 58.87 59.32 59.58 58.98 58.13 54.72 52.61 54.85 50.87 50.61 49.99 50.48 52.37 52.81 51.75 53.13 51.76 52.39 50.94 46.88 50.19 45.12 39.08 39.05 40.50 41.00 40.41 39.94 38.40 38.32 40.71 37.96
64.04 64.01 64.00 63.52 63.37 63.12 62.26 61.58 60.31 58.89 58.71 58.96 58.75 58.53 58.55 58.68 58.49 58.16 57.19 55.42 55.36 55.79 49.75 51.78 51.01 50.87 51.67 51.90 49.45 49.62 52.43 49.03 50.12 46.95 48.82 46.21 40.32 42.17 42.95 42.43 41.81 41.36 39.00 36.58 37.90 39.58 36.23
64.03 63.97 63.96 63.59 63.38 63.18 62.35 61.25 60.17 58.78 58.54 58.69 58.56 57.90 58.21 58.13 57.55 57.54 57.94 57.28 58.92 57.80 50.32 49.56 51.39 50.80 50.79 51.73 47.54 46.81 50.18 49.46 47.35 45.30 44.58 39.42 40.65 43.01 41.76 41.02 38.30 39.99 35.36 33.66 34.47 37.62 37.57
62.19 63.89 63.96 63.60 63.25 62.98 62.16 60.87 60.02 58.78 58.16 58.14 58.04 57.29 57.72 57.03 55.90 59.62 56.99 58.96 60.34 60.40 45.65 46.25 47.60 49.36 50.95 52.65 46.97 49.60 49.69 49.30 48.48 44.57 44.10 40.91 42.62 41.42 41.33 39.76 37.90 37.46 37.60 37.13 36.20 33.33 29.52
61.72 62.62 63.98 63.41 62.98 62.56 61.62 60.38 59.79 58.87 57.71 57.56 57.61 56.77 56.59 55.62 54.64 56.46 58.42 61.13 61.81 57.99 38.35 47.63 47.74 52.59 50.36 48.57 48.57 47.38 50.27 49.53 45.65 44.27 44.31 39.05 40.39 39.22 39.72 37.30 38.49 35.75 39.56 37.95 37.93 34.05 32.68
60.20 61.12 63.24 63.24 62.76 62.24 61.20 60.23 59.66 58.98 57.73 57.49 57.35 56.44 55.80 58.40 57.31 59.89 60.49 61.24 58.27 45.56 38.40 44.56 47.85 46.70 46.84 48.09 46.89 48.46 48.59 49.16 47.95 44.87 42.39 40.16 42.69 40.11 37.60 39.53 39.24 39.14 37.87 38.30 36.66 33.79 26.86
58.24 59.26 60.27 62.94 62.63 62.06 61.16 60.36 59.72 59.32 58.14 57.45 56.60 55.84 54.28 56.08 55.41 60.39 60.42 56.89 45.50 40.35 48.34 43.51 45.20 46.96 46.87 45.07 44.94 46.64 45.98 43.94 41.66 39.30 38.88 40.16 39.75 40.15 40.28 37.15 38.74 37.11 33.52 28.58 27.97 25.90 26.05
56.66 57.48 58.35 58.95 61.60 62.03 61.26 60.44 59.70 59.12 58.03 56.79 55.41 54.43 56.48 56.35 58.26 59.47 57.15 50.10 40.67 47.00 46.56 48.01 47.39 47.01 44.95 45.73 45.31 44.50 43.95 41.51 42.34 41.56 40.11 38.69 34.97 37.35 39.08 35.33 33.08 34.90 32.35 27.43 23.22 24.06 25.55
55.00 55.41 56.92 57.74 57.99 59.10 61.24 60.45 59.61 58.94 57.14 55.39 53.75 55.53 54.70 57.23 58.58 58.02 52.49 42.69 43.80 47.28 48.00 45.96 46.07 43.79 44.12 45.41 44.47 43.46 42.44 41.99 41.08 40.56 37.88 38.18 35.17 37.86 37.89 37.43 35.35 34.31 31.17 32.16 28.50 30.18 24.72
53.87 54.21 55.77 56.54 56.70 57.29 59.54 60.58 59.84 58.81 56.54 54.30 52.04 54.08 53.98 56.77 57.59 55.70 48.69 44.08 47.61 49.13 48.43 48.46 43.97 45.61 44.11 43.74 42.34 42.44 41.88 41.54 41.01 41.64 40.49 38.81 34.88 38.37 37.09 37.44 36.59 33.88 34.66 28.65 28.53 22.52 21.37
53.03 53.50 54.65 55.75 55.86 55.94 56.83 60.28 59.93 58.61 55.85 53.83 52.15 50.99 53.37 56.42 55.95 51.67 43.85 45.65 49.16 49.76 49.36 47.32 46.45 46.05 45.50 44.73 43.78 42.52 42.22 40.15 41.99 40.69 40.25 38.75 37.20 34.34 36.64 34.91 33.97 32.53 31.78 31.58 30.17 26.86 20.75
52.58 52.76 53.38 54.94 54.76 55.28 55.55 57.56 59.72 57.55 54.11 52.00 51.44 46.54 54.57 54.99 47.37 48.33 45.66 48.62 48.18 48.00 48.91 48.50 47.39 47.75 46.23 45.28 43.52 43.20 42.37 41.18 42.08 41.98 39.75 38.50 37.18 34.74 32.66 34.86 36.31 34.07 32.42 31.68 26.32 26.51 24.77
51.94 52.20 52.46 52.97 54.14 54.33 55.12 56.40 58.72 56.21 52.70 52.64 49.26 50.03 54.65 52.77 43.41 44.60 48.20 48.39 48.24 47.15 46.79 46.56 46.02 48.17 46.63 44.61 41.66 43.38 41.54 41.69 41.96 41.16 39.13 38.75 36.70 32.04 28.76 30.86 33.72 31.79 33.40 32.33 30.57 27.54 25.26
50.55 51.22 51.69 52.02 52.46 53.46 54.15 54.96 56.10 56.99 53.49 51.69 49.74 45.68 49.41 49.22 49.38 47.01 46.58 46.45 45.46 46.78 47.38 47.85 46.74 47.08 44.87 43.18 44.11 40.82 39.53 39.93 40.53 40.98 40.09 39.85 37.82 35.58 32.14 32.47 33.90 29.25 30.56 30.96 30.05 24.67 26.38
48.96 50.35 50.96 51.47 51.31 52.53 52.83 53.45 54.07 56.02 54.09 51.53 50.22 48.12 47.88 43.93 44.55 46.34 47.06 47.87 46.01 42.94 44.49 46.11 44.78 45.08 44.61 40.09 41.90 41.15 40.61 36.95 38.30 41.15 38.57 37.56 34.87 35.78 36.50 36.25 34.86 34.13 33.59 30.36 24.56 29.68 23.46
48.10 49.65 50.96 50.94 50.83 50.87 51.67 52.03 53.08 53.26 53.65 50.19 48.97 47.95 48.58 46.33 45.74 45.81 44.88 45.37 46.27 46.51 43.47 42.89 43.35 45.47 45.65 44.01 43.82 41.57 40.79 38.42 37.71 38.49 36.94 37.74 34.77 34.56 33.60 35.72 33.58 31.68 34.08 33.80 30.94 30.86 30.25
48.06 48.36 50.38 50.70 50.42 50.02 49.62 50.75 51.81 52.44 52.28 51.65 52.37 51.26 48.01 46.16 44.10 43.94 45.05 45.86 46.51 47.93 45.74 44.46 44.39 45.31 44.19 44.45 43.01 42.29 42.09 42.59 40.54 38.16 36.01 35.70 34.89 32.67 30.39 32.95 32.56 30.34 33.22 33.12 32.66 33.32 31.56
47.99 47.83 48.83 49.67 49.79 49.75 49.40 49.67 51.35 52.23 51.89 52.12 52.48 51.22 46.43 43.38 43.65 44.07 46.71 47.43 46.81 47.24 45.63 43.62 43.27 44.56 42.20 44.52 43.77 42.41 40.72 40.09 39.81 37.67 39.49 36.05 34.81 32.42 30.37 31.57 26.79 33.50 33.86 34.93 34.61 35.75 34.97
47.32 47.78 48.25 48.47 48.84 49.39 49.04 48.74 50.15 51.66 51.92 51.52 53.45 49.90 48.47 45.19 46.46 45.32 45.40 43.97 42.60 42.63 41.05 41.52 39.78 41.35 44.31 42.82 38.14 34.26 34.82 34.98 35.54 36.51 35.73 36.72 36.27 32.81 29.81 30.37 36.00 31.40 32.78 32.42 32.60 33.81 37.80
47.04 47.74 48.12 47.72 48.24 48.92 48.87 48.53 48.73 50.83 51.88 51.11 52.27 53.30 49.17 46.07 43.52 47.48 44.21 43.69 40.66 39.48 37.70 37.19 39.37 42.28 42.94 40.74 39.69 34.25 32.27 36.57 29.60 30.30 34.37 35.35 34.98 33.20 29.25 27.53 28.10 34.06 34.73 36.81 34.81 28.77 36.72
46.71 47.37 47.52 48.46 48.95 48.99 48.48 48.36 49.18 51.23 51.36 50.37 50.37 53.72 49.52 46.28 47.76 44.30 42.05 40.92 44.65 42.67 37.69 36.16 37.41 36.86 40.22 40.43 38.59 37.63 37.70 40.03 30.03 29.84 25.94 27.42 28.44 26.85 29.51 28.92 35.18 35.39 35.30 35.76 29.48 35.23 35.73
46.60 47.04 46.89 47.62 48.41 48.57 47.90 48.22 48.41 48.35 48.64 49.43 50.68 49.10 47.89 47.13 46.90 42.42 43.63 41.85 42.88 43.22 36.83 37.39 37.03 37.08 35.60 36.87 40.13 40.48 38.51 37.06 36.76 35.55 30.20 28.78 28.49 27.11 30.48 29.88 27.94 35.60 31.89 31.86 37.43 33.91 35.38
46.78 46.52 46.23 46.64 47.44 47.83 48.05 47.88 47.81 47.89 47.64 49.10 46.84 46.57 47.39 43.32 42.16 40.71 41.93 41.67 41.52 40.28 41.60 39.38 41.64 38.90 40.41 38.11 41.48 41.83 35.39 34.85 37.52 32.58 36.75 31.64 37.88 33.85 34.75 34.83 37.34 36.14 34.63 36.63 37.72 35.19 34.57